Date,TemperatureHighF,TemperatureAvgF,TemperatureLowF,DewpointHighF,DewpointAvgF,DewpointLowF,HumidityHigh,HumidityAvg,HumidityLow,PressureMaxIn,PressureMinIn,WindSpeedMaxMPH,WindSpeedAvgMPH,GustSpeedMaxMPH,PrecipitationSumIn
2013-1-1,25.2,19.0,14.6,19.0,14.9,11.0,92,84,71,30.41,30.29,12,3,14,0.00
2013-1-2,34.1,26.0,18.3,28.0,20.5,11.0,92,80,70,30.43,30.26,17,7,21,0.01
2013-1-3,28.6,22.2,14.7,21.0,16.2,7.0,88,78,65,30.54,30.41,12,4,15,0.00
2013-1-4,35.1,23.0,14.4,22.0,12.6,6.0,79,65,49,30.41,30.19,10,2,13,0.00
2013-1-5,39.9,26.4,14.8,29.0,18.9,9.0,83,74,61,30.44,30.15,10,4,16,0.01
2013-1-6,41.8,30.1,19.8,30.0,21.2,10.0,79,70,57,30.45,30.06,18,6,22,0.00
2013-1-7,41.8,32.6,25.8,29.0,24.0,19.0,82,71,56,30.09,29.95,15,3,18,0.00
2013-1-8,47.2,32.2,17.7,33.0,24.9,15.0,89,75,57,30.32,29.90,9,2,12,0.00
2013-1-9,50.4,37.7,25.2,36.0,28.9,20.0,84,71,56,30.47,30.27,13,5,21,0.00
2013-1-10,38.4,36.2,34.5,36.0,32.5,29.0,97,87,70,30.27,29.60,12,5,16,0.00
2013-1-11,45.9,34.2,18.8,37.0,31.3,12.0,97,90,62,29.96,29.33,18,7,26,0.00
2013-1-12,22.5,16.3,8.5,12.0,8.4,4.0,82,71,61,30.35,29.97,15,5,21,0.00
2013-1-13,23.2,11.5,3.6,11.0,5.2,-1.0,85,76,58,30.52,30.35,9,2,14,0.00
2013-1-14,25.9,16.2,6.3,17.0,10.1,2.0,90,77,60,30.59,30.42,12,2,14,0.00
2013-1-15,31.2,21.7,8.9,23.0,13.1,6.0,89,71,37,30.44,30.20,11,5,17,0.00
2013-1-16,49.4,37.3,30.4,29.0,26.5,23.0,82,66,46,30.39,30.18,15,6,22,0.00
2013-1-17,52.1,37.6,25.7,28.0,23.5,20.0,83,59,33,30.56,30.30,13,4,15,0.00
2013-1-18,56.9,41.6,27.5,27.0,24.0,22.0,79,53,29,30.29,30.03,17,7,21,0.00
2013-1-19,56.8,44.0,32.8,26.0,22.6,19.0,72,44,27,30.27,30.02,15,6,22,0.00
2013-1-20,42.6,28.0,20.8,32.0,22.8,17.0,92,81,60,30.50,30.19,9,2,18,0.00
2013-1-21,35.7,24.1,16.1,26.0,19.0,13.0,93,81,63,30.47,30.29,15,4,18,0.00
2013-1-22,43.4,26.9,15.2,26.0,19.6,13.0,92,76,47,30.33,30.22,19,3,21,0.00
2013-1-23,42.3,33.8,21.1,26.0,22.1,16.0,82,63,49,30.42,30.20,18,7,22,0.00
2013-1-24,34.4,22.9,11.4,25.0,17.5,8.0,89,80,65,30.43,30.15,16,5,20,0.00
2013-1-25,55.6,37.8,27.3,28.0,24.6,21.0,80,62,33,30.36,30.18,12,4,18,0.00
2013-1-26,58.5,41.9,27.6,37.0,29.0,23.0,88,63,37,30.18,29.86,14,6,18,0.01
2013-1-27,53.8,42.1,34.9,44.0,38.9,34.0,97,88,68,29.85,29.68,14,4,16,0.02
2013-1-28,43.9,37.7,33.4,41.0,36.4,32.0,96,94,89,29.81,29.55,14,4,15,0.01
2013-1-29,35.5,31.8,25.9,32.0,28.9,22.0,94,89,82,29.91,29.71,10,2,18,0.00
2013-1-30,37.7,27.2,17.4,24.0,17.3,12.0,88,68,39,30.06,29.91,17,7,22,0.00
2013-1-31,32.3,28.1,22.9,25.0,18.6,12.0,80,68,52,30.39,30.01,10,4,17,0.00
2013-2-1,53.7,34.9,19.2,35.0,25.6,17.0,91,72,37,30.36,30.08,22,8,26,0.00
2013-2-2,54.6,39.8,30.4,31.0,26.5,21.0,92,63,30,30.34,30.23,23,6,26,0.00
2013-2-3,51.3,39.2,27.7,27.0,23.5,20.0,76,55,35,30.34,29.87,17,5,26,0.00
2013-2-4,57.6,40.9,26.7,28.0,22.4,18.0,82,52,22,30.03,29.85,12,2,16,0.00
2013-2-5,56.6,43.0,32.0,29.0,24.6,20.0,66,50,31,30.08,29.92,12,3,13,0.00
2013-2-6,63.3,45.5,32.6,36.0,28.5,24.0,71,54,27,29.96,29.74,11,3,17,0.00
2013-2-7,56.0,43.1,29.5,34.0,25.3,15.0,89,54,24,30.18,29.96,11,2,15,0.00
2013-2-8,53.5,40.9,27.6,28.0,22.6,14.0,76,50,34,30.19,29.85,26,10,41,0.00
2013-2-9,57.4,43.4,33.6,42.0,27.7,18.0,94,57,37,29.85,29.37,21,11,32,0.09
2013-2-10,39.5,30.8,26.0,32.0,26.0,20.0,94,83,65,30.14,29.33,31,13,41,0.01
2013-2-11,37.7,28.2,19.1,19.0,16.4,14.0,79,63,39,30.29,30.15,11,4,18,0.00
2013-2-12,45.6,31.8,20.1,20.0,16.3,10.0,79,56,25,30.22,30.06,16,5,20,0.00
2013-2-13,55.8,38.4,25.7,27.0,21.1,17.0,74,53,30,30.09,29.90,20,7,23,0.00
2013-2-14,39.8,31.9,19.3,33.0,25.0,16.0,90,76,54,30.42,30.01,10,2,19,0.01
2013-2-15,39.5,25.3,16.8,23.0,17.0,14.0,89,73,39,30.50,30.41,11,2,16,0.00
2013-2-16,60.0,40.6,19.1,29.0,22.9,14.0,82,54,29,30.45,30.00,19,6,28,0.00
2013-2-17,67.3,47.6,28.9,27.0,20.5,9.0,69,40,10,30.00,29.48,17,6,26,0.00
2013-2-18,47.6,37.1,23.5,29.0,22.3,15.0,82,57,33,30.21,29.57,17,4,23,0.00
2013-2-19,40.6,26.6,17.1,20.0,16.0,11.0,87,66,41,30.35,30.19,16,6,27,0.00
2013-2-20,24.2,20.0,17.8,21.0,13.2,5.0,92,77,54,30.20,30.02,23,13,27,0.00
2013-2-21,20.6,17.3,13.9,19.0,15.0,12.0,92,91,89,30.11,29.99,23,6,32,0.00
2013-2-22,29.0,16.2,5.8,24.0,13.1,3.0,90,87,82,30.23,30.10,8,2,11,0.10
2013-2-23,38.8,27.5,16.8,32.0,23.1,13.0,93,83,73,30.14,29.84,18,7,20,0.03
2013-2-24,32.1,27.7,21.0,30.0,26.1,19.0,95,93,89,30.18,29.86,8,3,13,0.00
2013-2-25,38.0,29.8,20.3,31.0,26.8,18.0,96,88,72,30.18,30.00,3,0,9,0.06
2013-2-26,36.8,22.6,9.7,26.0,17.1,7.0,92,80,62,30.13,29.94,5,1,8,0.00
2013-2-27,37.7,31.1,23.1,29.0,25.4,18.0,89,79,69,30.30,30.13,12,3,20,0.00
2013-2-28,42.1,31.0,21.4,29.0,22.7,15.0,87,72,55,30.37,30.27,10,2,13,0.00
2013-3-1,42.6,32.7,25.3,33.0,27.9,24.0,94,83,63,30.39,30.28,9,2,13,0.00
2013-3-2,58.4,42.7,27.4,40.0,33.1,24.0,91,71,46,30.38,30.05,12,4,16,0.00
2013-3-3,65.9,49.2,37.7,42.0,35.7,30.0,75,62,32,30.05,29.58,12,3,14,0.00
2013-3-4,49.5,39.2,26.8,36.0,27.0,13.0,86,63,42,30.25,29.60,13,4,21,0.01
2013-3-5,44.6,31.3,22.1,18.0,14.4,12.0,73,52,28,30.45,30.25,20,5,24,0.00
2013-3-6,50.1,32.9,21.2,30.0,23.2,17.0,85,69,43,30.41,30.03,20,9,29,0.00
2013-3-7,52.0,37.1,25.5,33.0,28.6,23.0,92,74,47,30.08,30.00,12,5,20,0.00
2013-3-8,59.3,42.5,29.2,51.0,36.9,27.0,92,81,60,30.05,29.64,18,5,20,0.00
2013-3-9,54.1,40.6,31.5,52.0,38.9,30.0,96,93,88,29.90,29.51,16,6,24,0.00
2013-3-10,31.5,26.0,17.3,31.0,21.3,13.0,96,83,65,30.19,29.91,14,3,18,0.13
2013-3-11,51.3,32.8,17.9,34.0,23.7,13.0,84,70,48,30.17,30.02,8,2,13,0.07
2013-3-12,46.5,38.1,32.3,31.0,22.8,14.0,87,58,31,30.38,30.16,16,4,25,0.00
2013-3-13,65.6,47.4,29.3,36.0,27.3,16.0,65,48,28,30.38,30.15,11,4,17,0.00
2013-3-14,73.6,58.5,42.8,37.0,33.1,30.0,70,42,21,30.18,30.00,15,5,24,0.00
2013-3-15,81.1,61.5,43.8,38.0,30.9,21.0,64,36,11,29.98,29.65,16,6,22,0.00
2013-3-16,54.1,40.3,31.6,38.0,31.7,29.0,93,73,52,30.04,29.77,15,3,19,0.02
2013-3-17,52.4,38.0,30.3,40.0,32.7,29.0,96,83,51,30.02,29.59,19,6,31,0.02
2013-3-18,53.4,39.6,25.5,37.0,22.0,15.0,95,56,23,30.05,29.83,23,5,26,0.00
2013-3-19,52.7,37.9,27.6,22.0,18.0,13.0,74,47,23,30.38,30.03,18,4,22,0.00
2013-3-20,49.2,35.2,19.7,22.0,17.5,9.0,84,52,29,30.46,29.93,23,5,24,0.00
2013-3-21,50.0,37.9,25.2,30.0,22.9,18.0,92,57,40,29.93,29.69,19,7,26,0.00
2013-3-22,51.4,37.8,25.5,34.0,28.8,24.0,94,73,38,29.98,29.84,19,5,26,0.02
2013-3-23,33.3,28.9,22.7,31.0,27.4,20.0,95,94,90,30.27,29.95,15,4,17,0.10
2013-3-24,31.2,19.6,9.2,24.0,15.3,7.0,90,83,69,30.40,30.26,10,2,17,0.01
2013-3-25,29.8,22.4,12.2,20.0,15.5,8.0,85,75,64,30.52,30.41,12,5,19,0.00
2013-3-26,46.3,29.1,10.2,31.0,19.8,5.0,82,69,51,30.50,30.15,17,3,18,0.02
2013-3-27,56.8,42.2,28.3,37.0,31.1,26.0,90,67,41,30.18,30.10,10,1,14,0.00
2013-3-28,64.0,48.9,34.4,38.0,33.8,29.0,82,59,34,30.19,30.04,13,3,21,0.00
2013-3-29,69.4,53.9,38.8,49.0,41.5,34.0,84,65,38,30.12,29.91,14,4,25,0.08
2013-3-30,69.1,54.4,41.3,47.0,41.1,36.0,87,65,31,30.08,29.88,14,3,24,0.00
2013-3-31,70.2,49.8,34.8,41.0,34.0,27.0,93,62,21,30.09,29.85,19,4,23,0.01
2013-4-1,49.5,39.2,30.6,29.0,27.5,26.0,88,65,41,30.27,30.05,15,4,19,0.00
2013-4-2,46.3,40.5,36.4,28.0,26.1,24.0,72,58,43,30.27,30.20,11,2,19,0.00
2013-4-3,51.3,42.2,34.3,32.0,28.8,23.0,85,61,36,30.28,30.17,14,4,22,0.00
2013-4-4,66.4,47.4,29.8,36.0,32.4,27.0,90,62,30,30.21,30.06,13,3,16,0.00
2013-4-5,75.9,60.0,0.1,41.0,33.2,30.0,72,40,19,30.07,29.53,22,-6,33,0.00
2013-4-6,74.3,61.2,47.9,41.0,34.9,27.0,69,40,20,29.75,29.51,18,6,22,0.00
2013-4-7,73.0,60.6,49.3,51.0,40.6,29.0,86,51,23,29.74,29.52,14,3,30,0.00
2013-4-8,71.7,57.4,41.5,58.0,48.0,35.0,90,72,45,29.59,29.34,36,7,45,0.00
2013-4-9,53.5,26.8,18.3,48.0,24.9,16.0,94,92,78,30.25,29.40,15,6,29,0.31
2013-4-10,29.0,24.6,19.1,25.0,20.5,17.0,90,84,78,30.27,30.10,9,4,21,0.00
2013-4-11,47.0,31.4,20.8,30.0,24.3,18.0,91,77,48,30.10,29.83,15,6,23,0.01
2013-4-12,55.1,39.0,26.8,40.0,32.4,24.0,94,79,44,30.08,29.96,9,2,16,0.06
2013-4-13,69.3,49.9,31.8,47.0,38.9,30.0,95,71,38,30.08,29.31,28,9,32,0.01
2013-4-14,60.9,52.3,41.3,46.0,28.4,12.0,84,43,19,29.73,29.17,28,10,37,0.00
2013-4-15,48.7,40.0,32.2,27.0,23.1,-99.9,76,54,36,30.06,29.71,10,-10,17,0.00
2013-4-16,44.3,38.2,31.9,29.0,27.4,25.0,86,66,52,30.20,30.04,26,10,28,0.00
2013-4-17,39.3,33.8,27.1,32.0,30.0,26.0,94,86,61,30.11,29.93,12,3,22,0.00
2013-4-18,34.4,29.0,23.8,27.0,24.4,20.0,95,83,69,30.23,30.06,14,4,26,0.09
2013-4-19,60.1,40.9,24.1,37.0,27.9,19.0,84,63,33,30.20,30.03,17,7,26,0.00
2013-4-20,59.4,44.1,30.9,37.0,32.1,27.0,87,65,37,30.07,29.94,20,6,23,0.00
2013-4-21,69.2,52.5,33.7,42.0,36.7,31.0,92,61,29,30.04,29.93,15,3,19,0.00
2013-4-22,50.8,38.9,28.8,45.0,36.7,26.0,97,92,73,30.36,29.85,19,4,23,0.30
2013-4-23,44.2,32.4,25.5,29.0,24.5,20.0,94,75,43,30.39,30.24,8,1,14,0.06
2013-4-24,58.7,41.8,25.1,29.0,23.9,18.0,85,55,22,30.32,30.17,17,4,28,0.00
2013-4-25,71.0,52.7,32.9,35.0,28.0,24.0,72,43,20,30.28,29.87,29,10,39,0.00
2013-4-26,77.5,61.0,43.7,47.0,32.2,25.0,81,38,15,30.10,29.90,17,5,23,0.00
2013-4-27,80.3,62.8,45.9,48.0,37.9,21.0,89,51,11,30.09,29.82,15,3,21,0.00
2013-4-28,87.4,70.3,48.8,45.0,32.8,24.0,70,31,10,29.84,29.60,20,7,29,0.00
2013-4-29,82.9,65.6,47.3,43.0,39.4,36.0,70,42,19,29.73,29.41,13,3,19,0.00
2013-4-30,70.3,60.6,50.6,43.0,39.4,25.0,67,47,30,29.80,29.39,15,6,26,0.00
2013-5-1,52.9,37.0,31.3,37.0,33.7,30.0,96,89,42,30.62,29.82,22,6,25,0.12
2013-5-2,52.2,40.1,30.3,36.0,30.7,27.0,96,73,38,30.76,30.50,10,1,13,0.34
2013-5-3,61.1,46.1,32.1,36.0,28.9,24.0,85,55,28,30.50,30.08,6,1,15,0.00
2013-5-4,61.7,44.8,27.5,28.0,24.0,20.0,80,50,22,30.19,30.11,11,2,17,0.00
2013-5-5,65.7,58.7,49.6,29.0,23.9,17.0,39,27,17,30.27,30.11,9,1,11,0.00
2013-5-6,70.9,57.2,41.4,44.0,34.8,24.0,75,45,29,30.13,29.92,12,3,24,0.00
2013-5-7,70.3,57.7,51.0,54.0,48.8,40.0,88,73,56,29.96,29.77,21,6,27,0.00
2013-5-8,75.9,65.2,49.0,53.0,49.2,42.0,94,60,31,29.88,29.80,19,4,26,0.00
2013-5-9,65.2,55.8,48.3,52.0,49.0,45.0,91,78,60,30.07,29.86,13,2,16,0.00
2013-5-10,71.1,57.4,44.1,51.0,45.8,42.0,94,69,38,30.12,30.02,10,1,29,0.06
2013-5-11,68.3,57.2,46.6,48.0,37.0,26.0,90,53,25,30.32,30.10,8,1,14,0.00
2013-5-12,80.3,61.7,44.5,49.0,42.0,33.0,86,52,26,30.19,29.95,8,2,13,0.00
2013-5-13,94.2,73.7,54.5,49.0,43.9,37.0,75,42,15,29.97,29.78,7,1,12,0.00
2013-5-14,98.9,81.6,61.8,51.0,42.6,37.0,49,28,13,29.72,29.53,15,3,19,0.00
2013-5-15,83.6,73.4,58.7,55.0,47.7,42.0,64,42,28,29.69,29.60,21,6,24,0.00
2013-5-16,82.5,66.7,59.0,58.0,53.9,48.0,82,66,33,29.71,29.60,14,4,23,0.08
2013-5-17,84.9,71.6,56.5,64.0,57.7,53.0,91,65,34,29.77,29.61,22,8,28,0.00
2013-5-18,83.5,70.7,61.1,67.0,62.2,52.0,90,75,55,29.65,29.43,17,5,26,0.00
2013-5-19,72.3,62.6,54.6,55.0,51.7,46.0,91,69,48,29.61,29.54,20,6,28,0.10
2013-5-20,68.5,59.1,53.5,52.0,47.8,44.0,89,68,42,29.77,29.61,22,12,35,0.00
2013-5-21,68.4,57.7,50.1,47.0,44.3,41.0,83,63,40,29.84,29.73,19,8,32,0.00
2013-5-22,74.1,58.7,42.3,49.0,45.8,40.0,93,66,38,29.97,29.83,11,2,15,0.00
2013-5-23,70.1,57.8,47.9,52.0,48.7,45.0,91,73,51,30.12,30.00,16,5,25,0.02
2013-5-24,84.4,67.1,55.7,66.0,56.8,51.0,92,72,39,30.07,29.73,25,10,32,0.00
2013-5-25,91.9,73.8,61.0,66.0,54.1,-99.9,88,55,31,29.86,29.61,22,-13,34,0.05
2013-5-26,93.4,77.7,63.8,63.0,57.2,46.0,93,56,21,29.71,29.52,19,8,27,0.00
2013-5-27,78.6,70.1,61.6,67.0,61.6,49.0,94,75,51,29.57,29.44,17,4,21,0.00
2013-5-28,84.6,69.5,54.7,66.0,58.1,51.0,95,70,35,29.64,29.40,24,5,31,0.00
2013-5-29,85.7,66.8,54.6,66.0,57.2,49.0,92,74,41,29.47,29.16,22,5,28,0.60
2013-5-30,75.6,61.9,52.1,53.0,49.2,39.0,95,67,28,29.62,29.45,24,6,33,0.13
2013-5-31,77.9,64.4,49.8,49.0,42.1,30.0,87,51,18,29.80,29.62,26,8,37,0.02
2013-6-1,70.2,59.4,51.7,49.0,45.8,44.0,78,62,43,30.09,29.77,19,7,28,0.00
2013-6-2,75.6,60.8,44.3,49.0,45.5,41.0,87,60,35,30.12,29.83,17,3,24,0.00
2013-6-3,91.3,66.6,52.9,60.0,49.0,-99.9,77,58,27,29.83,29.50,18,9,31,0.02
2013-6-4,74.4,68.6,62.2,62.0,58.8,54.0,90,72,59,29.92,29.79,18,3,21,0.03
2013-6-5,65.4,57.2,50.5,56.0,49.9,47.0,92,78,55,30.07,29.89,8,1,14,0.02
2013-6-6,75.5,61.6,47.1,53.0,49.3,44.0,92,67,42,30.06,29.90,7,1,10,0.03
2013-6-7,81.4,66.6,51.0,56.0,51.7,48.0,89,62,35,29.98,29.69,11,2,22,0.00
2013-6-8,78.6,67.7,60.3,61.0,56.5,52.0,86,69,45,29.80,29.50,15,2,21,0.00
2013-6-9,87.7,70.5,54.6,54.0,49.9,47.0,82,53,26,29.86,29.73,11,2,17,0.00
2013-6-10,102.9,79.8,60.3,68.0,55.2,47.0,65,47,15,29.79,29.51,11,3,23,0.00
2013-6-11,106.7,88.0,70.2,65.0,54.4,39.0,71,37,10,29.57,29.31,23,5,32,0.00
2013-6-12,93.5,78.9,64.7,65.0,59.5,52.0,89,56,26,29.90,29.39,10,2,16,0.00
2013-6-13,87.6,69.4,54.6,64.0,55.7,51.0,90,65,38,30.00,29.75,20,-16,28,0.26
2013-6-14,-200.0,0.0,200.0,-99.9,-99.9,-99.9,0,0,100,29.71,0.00,0,-999,0,0.00
2013-6-17,84.7,66.5,69.8,60.0,34.0,-99.9,71,42,37,29.96,0.00,11,-117,17,0.00
2013-6-18,87.4,73.1,60.4,61.0,57.5,51.0,88,61,31,29.96,29.77,20,3,28,0.02
2013-6-19,82.8,71.0,60.8,65.0,60.3,55.0,89,70,51,29.83,29.67,34,8,47,0.00
2013-6-21,99.1,89.5,73.6,63.0,58.0,48.0,52,36,18,29.58,29.44,19,10,30,0.00
2013-6-22,94.3,81.4,66.1,65.0,62.3,53.0,85,55,33,29.59,29.42,21,7,38,0.00
2013-6-23,83.7,69.4,61.6,66.0,59.6,54.0,85,72,50,29.72,29.57,16,6,22,0.00
2013-6-24,94.2,77.9,61.5,67.0,61.1,58.0,91,61,31,29.73,29.46,25,4,32,0.11
2013-6-25,96.8,82.4,66.1,66.0,57.1,45.0,86,48,18,29.64,29.44,14,3,28,0.00
2013-6-26,100.5,84.1,62.6,57.0,50.8,44.0,71,35,15,29.78,29.64,11,1,21,0.00
2013-6-27,96.1,84.7,72.8,67.0,63.0,53.0,76,50,29,29.91,29.70,13,4,21,0.00
2013-6-28,95.1,80.1,64.1,67.0,59.4,52.0,91,55,24,29.96,29.86,9,2,14,0.00
2013-6-29,89.3,77.0,63.3,57.0,54.3,48.0,72,48,33,29.95,29.83,7,1,17,0.00
2013-6-30,84.5,71.1,57.9,55.0,50.4,47.0,71,50,29,30.04,29.93,8,1,15,0.00
2013-7-1,82.0,68.5,54.2,53.0,48.0,42.0,82,52,27,30.15,30.05,13,2,18,0.00
2013-7-2,83.5,70.4,57.1,46.0,42.4,38.0,63,39,20,30.13,29.98,11,1,15,0.00
2013-7-3,87.9,73.7,58.2,45.0,42.3,39.0,56,35,19,30.00,29.75,16,4,23,0.00
2013-7-4,91.3,78.0,61.4,52.0,47.5,43.0,64,37,20,29.79,29.65,13,5,21,0.00
2013-7-5,97.5,82.7,69.5,60.0,53.3,49.0,53,38,21,29.68,29.49,17,6,40,0.03
2013-7-6,100.5,82.1,68.8,60.0,57.2,55.0,65,46,23,29.61,29.52,21,3,28,0.03
2013-7-7,99.0,85.7,70.8,67.0,59.5,56.0,88,43,26,29.79,29.60,16,4,27,0.04
2013-7-8,100.2,83.4,66.8,68.0,62.9,58.0,91,56,25,29.81,29.63,19,3,32,0.13
2013-7-9,101.8,86.0,70.1,68.0,62.7,56.0,82,49,23,29.82,29.69,12,2,16,0.00
2013-7-10,88.1,76.8,65.4,70.0,64.6,57.0,91,68,36,29.98,29.82,31,5,45,0.52
2013-7-11,94.1,80.6,67.0,69.0,64.5,59.0,92,61,31,29.92,29.68,21,3,24,0.00
2013-7-12,101.7,86.2,71.4,65.0,61.3,54.0,73,47,21,29.74,29.58,16,5,22,0.00
2013-7-13,104.1,89.1,73.9,63.0,59.8,56.0,62,40,21,29.71,29.57,19,4,23,0.00
2013-7-15,85.1,77.6,68.3,65.0,57.1,50.0,86,52,32,30.06,29.95,10,3,19,0.01
2013-7-16,82.0,72.0,64.3,63.0,61.5,58.0,90,71,49,30.12,30.00,20,5,31,0.01
2013-7-17,87.3,74.1,59.9,64.0,60.9,58.0,94,67,41,30.19,30.02,21,6,26,0.00
2013-7-18,92.0,79.9,67.4,65.0,62.9,60.0,89,59,36,30.03,29.74,24,8,31,0.00
2013-7-19,93.3,77.0,67.5,72.0,64.8,62.0,91,69,37,29.86,29.75,15,3,26,0.14
2013-7-20,88.5,74.7,62.9,68.0,64.5,61.0,94,73,45,29.83,29.70,16,2,28,0.14
2013-7-21,90.4,75.1,59.8,66.0,61.0,56.0,88,65,37,29.85,29.64,17,3,23,0.00
2013-7-22,98.0,82.9,67.3,70.0,59.1,51.0,90,50,22,29.71,29.62,27,5,32,0.02
2013-7-23,91.6,77.8,66.2,66.0,59.9,55.0,83,56,33,29.87,29.64,27,8,34,0.02
2013-7-24,89.4,75.5,63.4,64.0,61.2,56.0,93,66,32,29.99,29.85,14,2,33,0.00
2013-7-25,79.8,70.6,64.0,70.0,64.3,60.0,93,81,58,29.99,29.84,12,2,19,0.05
2013-7-26,84.4,72.4,61.3,67.0,60.9,56.0,97,71,38,30.08,29.96,16,2,17,0.01
2013-7-27,68.5,61.8,56.8,58.0,55.0,53.0,89,78,65,30.05,29.91,18,7,27,0.02
2013-7-28,60.3,58.3,55.1,59.0,56.1,52.0,97,92,82,29.99,29.90,13,2,16,0.15
2013-7-29,73.6,66.1,59.9,67.0,63.5,59.0,97,91,80,29.95,29.86,10,0,11,0.01
2013-7-30,86.1,73.6,64.7,67.0,64.3,62.0,95,76,45,30.01,29.91,9,1,15,0.01
2013-7-31,86.7,75.7,65.5,69.0,66.0,64.0,95,73,50,30.11,29.94,18,4,19,0.01
2013-8-1,90.3,76.6,63.7,70.0,65.2,61.0,91,70,50,30.01,29.64,17,4,27,0.01
2013-8-2,91.2,76.4,63.2,69.0,64.3,59.0,88,69,41,29.83,29.70,18,6,27,0.00
2013-8-3,72.1,69.8,66.8,68.0,65.5,63.0,95,86,76,30.04,29.83,21,8,30,0.00
2013-8-4,82.3,71.0,63.4,70.0,66.5,62.0,96,86,66,30.02,29.84,10,3,15,0.34
2013-8-5,88.8,76.4,69.7,74.0,71.2,68.0,96,85,52,29.88,29.71,12,2,18,0.34
2013-8-6,86.8,75.8,65.6,72.0,69.1,65.0,97,81,56,29.77,29.68,12,2,19,0.00
2013-8-7,80.0,70.2,61.0,70.0,63.0,58.0,93,78,61,29.90,29.77,17,3,31,0.31
2013-8-8,75.7,68.2,62.7,65.0,60.6,50.0,95,79,41,29.98,29.86,9,1,12,0.03
2013-8-9,81.5,70.4,57.9,64.0,60.0,57.0,96,72,45,30.06,29.96,9,1,14,0.01
2013-8-10,80.5,70.3,59.1,63.0,59.5,57.0,92,71,48,30.08,29.94,13,4,21,0.01
2013-8-11,81.1,72.1,63.4,70.0,65.3,61.0,93,80,65,30.00,29.86,9,2,17,0.00
2013-8-12,84.8,77.5,65.8,66.0,64.1,62.0,94,65,46,29.97,29.88,14,2,16,0.07
2013-8-13,81.7,71.7,65.3,67.0,63.1,60.0,93,76,49,30.03,29.94,17,2,25,0.02
2013-8-14,80.1,69.5,63.1,65.0,62.6,60.0,92,80,53,30.04,29.88,9,2,15,0.02
2013-8-15,86.7,71.1,59.7,65.0,58.8,55.0,91,68,37,29.98,29.85,14,2,22,0.01
2013-8-16,79.1,69.9,63.2,66.0,63.8,59.0,95,82,61,30.00,29.93,10,3,15,0.01
2013-8-17,74.8,69.4,66.0,67.0,65.2,64.0,93,86,76,30.00,29.90,11,3,18,0.00
2013-8-18,81.1,70.2,64.5,68.0,64.3,62.0,92,82,62,29.95,29.84,11,3,20,0.00
2013-8-19,89.3,75.0,61.7,69.0,65.3,60.0,95,74,46,29.93,29.78,9,2,16,0.00
2013-8-20,93.7,79.1,66.0,68.0,64.7,62.0,88,64,38,29.81,29.72,17,5,22,0.00
2013-8-21,96.7,81.1,67.4,67.0,63.5,61.0,82,58,32,29.78,29.69,20,5,23,0.00
2013-8-22,91.2,78.6,65.6,67.0,62.8,58.0,85,60,39,29.87,29.75,12,2,17,0.00
2013-8-23,90.2,76.5,66.7,69.0,65.0,59.0,93,70,43,29.88,29.71,12,2,19,0.02
2013-8-24,96.7,82.7,67.5,63.0,59.9,57.0,76,49,27,29.81,29.72,23,8,32,0.02
2013-8-25,97.4,84.6,73.3,63.0,60.6,57.0,65,47,26,29.86,29.78,23,9,31,0.00
2013-8-26,99.6,85.2,73.3,63.0,60.1,54.0,67,46,22,29.86,29.75,23,8,28,0.00
2013-8-27,98.3,83.3,69.9,62.0,58.6,53.0,68,46,22,29.79,29.71,16,7,24,0.00
2013-8-28,95.4,80.4,65.9,65.0,59.0,57.0,74,51,29,29.84,29.76,14,3,20,0.00
2013-8-29,101.7,84.5,68.9,66.0,58.1,47.0,77,47,16,29.82,29.72,12,2,17,0.00
2013-8-30,100.5,83.6,64.0,65.0,60.0,54.0,77,48,23,29.81,29.68,15,3,20,0.01
2013-8-31,95.1,79.9,67.8,68.0,64.2,58.0,87,61,35,29.87,29.64,15,3,20,0.01
2013-9-1,86.8,75.1,65.2,64.0,54.6,44.0,88,53,23,29.94,29.75,12,2,18,0.01
2013-9-2,89.2,75.0,61.3,55.0,51.8,48.0,68,46,30,29.99,29.85,9,2,17,0.00
2013-9-3,94.1,79.0,64.5,60.0,56.2,51.0,72,48,31,29.91,29.77,16,5,23,0.00
2013-9-4,97.9,82.1,69.0,59.0,56.0,54.0,60,43,23,29.91,29.82,19,4,21,0.00
2013-9-5,97.3,83.0,70.0,59.0,54.6,51.0,57,40,22,29.95,29.83,14,4,22,0.00
2013-9-6,102.4,85.0,68.3,53.0,48.2,45.0,46,31,15,29.86,29.71,13,4,23,0.00
2013-9-7,102.5,85.6,66.3,51.0,49.1,46.0,56,31,15,29.79,29.68,14,3,22,0.00
2013-9-8,99.9,86.9,72.6,56.0,52.0,47.0,51,32,17,29.73,29.56,19,6,26,0.00
2013-9-9,96.0,84.4,72.1,57.0,53.9,46.0,53,37,19,29.65,29.53,20,7,26,0.00
2013-9-10,91.0,76.6,62.7,65.0,60.2,53.0,87,60,33,29.91,29.62,10,1,21,0.00
2013-9-11,82.1,70.0,63.8,68.0,65.1,61.0,96,86,60,30.04,29.90,14,1,25,0.63
2013-9-12,69.3,65.9,63.4,66.0,64.4,62.0,96,94,89,30.12,30.04,11,2,18,0.38
2013-9-13,66.9,60.8,54.7,63.0,57.1,53.0,96,88,72,30.11,29.94,16,4,22,0.38
2013-9-14,79.5,67.0,58.8,68.0,60.8,54.0,88,81,68,29.95,29.71,17,4,20,0.11
2013-9-15,69.5,63.1,59.7,65.0,59.6,56.0,95,88,81,30.15,29.74,16,1,16,0.02
2013-9-16,60.3,56.8,54.5,57.0,54.4,53.0,96,91,86,30.20,30.08,11,2,19,0.03
2013-9-17,84.7,68.9,56.5,67.0,62.0,55.0,97,81,51,30.09,29.67,12,2,19,0.03
2013-9-18,92.2,76.0,63.2,66.0,62.8,57.0,93,67,31,29.68,29.50,13,4,20,0.03
2013-9-19,74.2,64.6,56.5,60.0,54.9,49.0,91,72,47,30.03,29.59,10,1,20,0.00
2013-9-20,75.5,60.1,46.1,51.0,47.8,44.0,94,67,34,30.11,29.93,8,1,14,0.00
2013-9-21,83.1,68.1,55.8,57.0,52.4,46.0,80,59,36,29.95,29.67,14,5,20,0.00
2013-9-22,87.3,70.6,55.8,58.0,53.4,48.0,77,57,33,29.68,29.45,18,7,33,0.00
2013-9-23,69.3,63.3,56.6,56.0,50.7,48.0,81,64,49,29.76,29.33,20,8,30,0.00
2013-9-24,79.1,63.2,49.7,51.0,43.9,38.0,90,56,24,29.98,29.76,16,4,19,0.00
2013-9-25,87.5,68.5,52.8,53.0,48.6,41.0,84,53,25,29.84,29.40,20,6,31,0.00
2013-9-26,85.4,70.6,56.0,54.0,50.0,47.0,73,50,28,29.52,29.40,10,2,19,0.00
2013-9-27,75.8,65.4,49.4,64.0,55.7,48.0,94,73,53,29.74,29.48,17,6,35,0.69
2013-9-28,69.0,55.5,43.2,47.0,41.4,34.0,93,64,28,30.05,29.75,12,5,19,0.12
2013-9-29,78.4,61.6,48.7,47.0,42.6,39.0,71,53,26,30.05,29.74,17,7,23,0.12
2013-9-30,83.4,66.3,47.7,53.0,47.2,40.0,87,56,22,29.77,29.60,9,2,16,0.00
2013-10-1,75.7,63.2,49.9,53.0,47.4,38.0,89,60,32,29.91,29.65,15,3,19,0.00
2013-10-2,78.7,65.4,53.7,64.0,57.9,50.0,93,78,56,29.83,29.68,10,1,14,0.00
2013-10-3,66.7,58.8,55.7,60.0,54.8,48.0,96,87,68,29.69,29.59,7,2,10,0.00
2013-10-4,59.5,51.7,38.6,58.0,46.6,32.0,97,84,56,30.04,29.54,36,10,41,0.01
2013-10-5,54.1,43.6,35.5,32.0,29.8,26.0,80,60,38,30.13,30.03,25,12,39,0.01
2013-10-6,70.1,53.0,39.7,39.0,34.0,28.0,68,51,30,30.12,30.06,20,7,24,0.00
2013-10-7,80.1,60.6,43.1,43.0,39.4,36.0,79,51,21,30.12,29.86,18,4,26,0.00
2013-10-8,82.1,64.9,49.1,42.0,38.4,33.0,69,42,17,29.85,29.60,19,8,29,0.00
2013-10-9,75.9,62.0,47.8,45.0,41.7,38.0,72,49,31,29.77,29.62,19,3,22,0.00
2013-10-10,84.4,63.0,47.4,54.0,47.3,42.0,92,61,27,29.77,29.40,24,6,45,0.10
2013-10-11,64.0,55.3,44.8,52.0,43.7,40.0,92,67,48,30.00,29.46,29,8,37,0.01
2013-10-12,61.4,51.6,44.6,43.0,38.0,34.0,80,62,38,30.23,29.98,5,0,8,0.01
2013-10-13,65.4,54.3,42.3,52.0,39.8,35.0,80,60,37,30.30,30.02,19,4,29,0.00
2013-10-14,72.4,56.9,43.2,61.0,50.4,35.0,94,80,33,30.02,29.57,37,12,43,0.00
2013-10-15,51.8,42.4,33.7,35.0,32.6,30.0,85,69,51,30.26,29.97,18,8,29,0.00
2013-10-16,57.2,42.3,31.0,36.0,31.8,28.0,89,69,37,30.27,30.01,10,2,14,0.04
2013-10-17,56.4,43.9,35.2,38.0,33.2,29.0,81,67,47,30.14,30.00,11,1,17,0.04
2013-10-18,51.9,39.4,33.2,40.0,32.5,27.0,95,78,53,30.20,30.11,15,2,26,0.01
2013-10-19,65.8,48.1,33.9,36.0,31.4,28.0,83,57,27,30.15,29.87,14,6,20,0.01
2013-10-20,58.6,49.3,38.3,41.0,35.6,30.0,85,60,44,30.09,29.78,13,4,18,0.00
2013-10-21,61.7,47.5,34.1,39.0,35.0,31.0,89,66,36,30.14,30.01,14,4,23,0.00
2013-10-22,68.5,55.6,47.3,42.0,39.4,38.0,71,56,35,30.06,29.98,15,4,23,0.00
2013-10-23,71.0,52.2,36.1,43.0,37.9,33.0,90,63,29,30.20,30.02,13,1,19,0.00
2013-10-24,47.9,41.3,32.5,39.0,36.4,31.0,94,83,72,30.39,30.21,6,1,10,0.00
2013-10-25,62.6,47.3,36.0,43.0,37.7,32.0,87,71,48,30.38,30.06,21,6,26,0.00
2013-10-26,62.2,49.0,37.6,41.0,35.1,32.0,90,63,33,30.31,30.08,7,1,12,0.00
2013-10-27,77.5,57.6,41.3,43.0,35.6,29.0,75,49,17,30.12,29.75,13,4,17,0.00
2013-10-28,54.7,43.5,38.1,39.0,36.3,34.0,94,76,52,30.07,29.76,11,2,17,0.00
2013-10-29,41.0,39.0,37.3,40.0,37.7,36.0,96,95,93,30.07,29.98,5,0,9,0.01
2013-10-30,54.1,42.5,36.3,43.0,38.5,35.0,96,86,63,30.05,29.79,8,1,12,0.01
2013-10-31,61.8,47.8,37.4,38.0,33.0,29.0,88,61,29,29.79,29.66,21,7,30,0.01
2013-11-1,59.5,48.4,33.5,39.0,30.7,23.0,76,53,28,30.17,29.77,22,8,29,0.00
2013-11-2,60.2,45.1,31.8,31.0,26.8,23.0,71,52,29,30.28,29.87,16,4,22,0.00
2013-11-3,68.2,48.7,36.4,36.0,32.5,30.0,83,56,29,29.86,29.47,20,6,26,0.00
2013-11-4,53.7,43.0,34.1,38.0,32.9,29.0,91,70,43,30.09,29.62,10,2,18,0.00
2013-11-5,38.6,36.0,30.6,37.0,33.9,29.0,95,91,82,30.23,29.95,11,3,21,0.01
2013-11-6,51.7,37.1,24.7,31.0,27.5,23.0,94,71,43,30.38,30.22,11,2,17,0.25
2013-11-7,55.9,42.2,29.5,35.0,31.6,26.0,88,68,44,30.51,30.14,8,1,15,0.04
2013-11-8,71.3,49.3,34.9,38.0,33.8,30.0,84,59,24,30.13,29.75,14,2,20,0.04
2013-11-9,59.7,45.4,33.3,35.0,32.5,29.0,85,64,35,30.32,29.97,7,0,10,0.00
2013-11-10,58.6,44.6,33.4,47.0,38.4,30.0,90,80,63,30.35,30.15,20,5,29,0.00
2013-11-11,44.0,34.4,25.6,42.0,30.1,21.0,92,84,74,30.81,30.13,13,1,16,0.00
2013-11-12,46.2,32.3,20.2,33.0,25.8,17.0,90,78,59,30.89,30.54,15,3,18,0.00
2013-11-13,71.1,47.7,30.1,38.0,32.8,27.0,88,61,28,30.53,29.92,17,9,20,0.00
2013-11-14,59.3,48.4,39.0,42.0,36.7,31.0,83,65,48,30.01,29.87,11,1,17,0.00
2013-11-15,62.4,46.7,36.5,40.0,35.7,31.0,88,68,38,29.87,29.41,22,5,28,0.00
2013-11-16,59.6,47.0,37.4,36.0,32.2,29.0,78,58,35,29.43,29.31,14,1,17,0.00
2013-11-17,52.6,45.3,33.1,35.0,18.9,12.0,64,37,20,30.13,29.42,32,8,42,0.00
2013-11-18,59.8,43.2,29.1,22.0,17.6,13.0,55,38,20,30.25,30.09,26,8,34,0.00
2013-11-19,56.3,42.3,29.9,33.0,26.6,20.0,69,55,41,30.10,29.74,17,6,24,0.00
2013-11-20,64.7,50.2,35.4,37.0,32.2,28.0,74,52,32,29.93,29.73,11,2,18,0.00
2013-11-21,43.1,22.7,16.0,31.0,16.1,11.0,87,76,61,30.80,29.94,13,5,21,0.00
2013-11-22,31.5,23.8,16.1,21.0,15.3,11.0,83,71,47,30.86,30.75,6,1,10,0.00
2013-11-23,30.1,24.2,19.7,21.0,16.8,14.0,83,74,58,30.91,30.71,3,0,6,0.00
2013-11-24,41.1,30.8,20.6,29.0,23.6,16.0,86,75,57,30.70,30.15,23,10,33,0.00
2013-11-25,47.2,30.4,18.9,31.0,21.1,17.0,92,71,38,30.39,30.13,7,0,13,0.00
2013-11-26,40.8,28.9,21.2,25.0,19.0,15.0,87,68,46,30.52,30.39,6,0,16,0.00
2013-11-27,22.4,20.4,18.7,18.0,15.1,14.0,82,80,76,30.51,30.37,8,2,13,0.00
2013-11-28,41.8,29.5,23.1,25.0,22.3,20.0,88,76,52,30.45,30.35,7,2,11,0.00
2013-11-29,45.2,33.0,22.0,33.0,26.5,19.0,89,78,61,30.44,30.19,6,0,11,0.00
2013-11-30,35.0,33.5,31.7,28.0,27.1,26.0,81,77,72,30.23,30.21,6,1,8,0.00
2013-12-23,25.8,20.8,19.1,18.0,9.8,-99.9,82,74,73,30.50,0.00,13,-49,17,0.00
2013-12-24,46.6,32.4,17.6,35.0,26.0,14.0,91,78,58,30.40,30.11,16,4,20,0.00
2013-12-25,45.0,32.8,25.0,26.0,22.5,17.0,92,68,40,30.49,30.33,13,4,19,0.00
2013-12-26,54.5,39.4,25.7,24.0,20.4,15.0,66,49,27,30.33,30.22,20,5,26,0.00
2013-12-27,61.7,45.9,26.3,26.0,21.5,17.0,71,41,23,30.33,30.07,19,4,20,0.00
2013-12-28,61.5,39.0,17.2,28.0,19.8,9.0,70,49,26,30.26,29.77,17,4,27,0.00
2013-12-29,27.0,17.8,9.3,13.0,6.9,3.0,78,63,46,30.48,30.22,15,2,22,0.00
2013-12-30,50.4,36.1,22.3,27.0,21.1,14.0,73,56,37,30.29,30.15,18,6,24,0.00
2013-12-31,59.6,41.4,25.9,29.0,21.7,-99.9,71,49,30,30.27,29.97,17,-8,22,0.00
2014-1-1,29.2,23.4,19.5,21.0,18.8,15.0,89,82,72,30.49,29.97,7,0,11,0.00
2014-1-2,44.2,30.8,18.9,26.0,20.5,-99.9,90,70,45,30.49,30.23,11,-10,16,0.00